User: anonymous   Login
Location: ??????
(31.2056°N, 45.3906°E)
Time: 11:42:30
(UTC+00:00)
Language:

ATLAS 2AS CENTAUR R/B - Orbit

View from above orbital plane
View from above orbital plane
View from above satellite
View from above satellite

Ground track
Ground track

The orbit data is extracted from the following two-line orbital elements,

1 28096U 03054B   20188.88891341 0.00000000  00000-0  00000-0 0    01
2 28096  63.6933 118.1059 0235231 230.9146 129.0854 13.40861263    06
Epoch (UTC): 06 July 2020 21:20:02
Eccentricity: 0.0235231
inclination: 63.6933°
perigee height: 930 km
apogee height: 1282 km
right ascension of ascending node: 118.1059°
argument of perigee: 230.9146°
revolutions per day: 13.40861263
mean anomaly at epoch: 129.0854°
orbit number at epoch: 0

The dashed part of the orbit path shows where the satellite is in the earth's shadow,  

DLR